FENGYUN 1C DEB, 37689

Orbit data source: Space-Track

FENGYUN 1C DEB, 37689 is space debris in SSO originally from a launch on Mon, 10 May 1999 UTC launched from the Taiyaun Space Center, China (TSC). Fengyun 1C debris stems from the Chinese weather satellite Fengyun-1C, which was intentionally destroyed by a Chinese anti-satellite missile in 2007. This event dramatically increased the amount of space debris, with thousands of trackable fragments posing hazards to satellites and human spaceflight. The Fengyun 1C debris cloud has become a focal point in discussions about space sustainability and the need for international regulations to prevent the creation of new debris.

Loading next visibility...
Identifier
37689, 1999-025ELE
Orbit
SSO
Country
Flag of CNCN / PRC
Related business
Manufacturer
Unknown
Mission
Spacecraft
Bus & Motor
Unknown
Mass
Unknown
Launch date (UTC)
1999-05-10 (27 years ago)
Launch vehicle
Unknown
Launch site
Taiyaun Space Center, China (TSC)
Object type
Payload
Rocket body
Debris
Shape & HBR
Unknown shape, 0.1 m
Radar Cross Section
Small (<0.1 m²)

Expand to show TLE details & history
Last TLE update: 2 days ago

TLE from 2 days ago
0 FENGYUN 1C DEB
1 37689U 99025ELE 26206.42610840  .00006694  00000-0  16542-2 0  9994
2 37689  98.9107 265.5270 0017222 278.3319  81.5922 14.52305113610709
Epoch: 2026-07-25T10:13Z
TLE epoch observation values (Epoch: 2026-07-25T10:13:35.765Z)
Latitude
-0.00003°
Longitude
168.98942°
Altitude
719.315 km
Speed
7.497 km/s
True Right ascension
17h 42m 06s
True Declination
0° 00' 00"
Sunlit
Object was in full shadow at epoch
Visualization orbit readout
Latitude
Unknown
Longitude
Unknown
Altitude
Unknown
Speed
Unknown
Apparent Right ascension
Unknown
Apparent Declination
Unknown
Sunlit
N/A
Visualization observer readout
Local Sidereal Time
01:37:50
Azimuth
Unknown
Elevation
Unknown
Doppler factor
Unknown
Orbital elements
Apogee altitude
727.471 km
Perigee altitude
703.039 km
Semi-major axis
7,093.392 km
Eccentricity
0.00172
Inclination
98.9107°
RAAN
265.527°
Arg. of periapsis
278.3319°
True anomaly
81.78749°
Mean anomaly
81.5922°
Eccentric anomaly
81.68984°
Mean motion
3.63297 °/min
Orbital period
99.09 mins
BSTAR
0.0016542
Loading maneuver chart data...
Computing Atmospheric mass density...

Documentation

Showing up to 5 results
|